www.pogodaiklimat.ru

Погода и климат >> Архив погоды >> Россия >> Иркутская область >> Карам


ПОГОДА в Караме

  • Прогноз погоды в Караме
  • Монитор погоды в Караме

АРХИВ ПОГОДЫ в Караме

Время (UTC), дата Ветер
(напр.,м/с)
 
Видим.   Явления Облачность Т
(С)
Тd
(С)
f
(%)
Тe
(С)
Тes
(С)
Комфортность P
(гПа)
Po
(гПа)
Тmin
(С)
Tmax
(С)
R
(мм)
R24
(мм)
S
(см)
21 15.04 З 1 н/о 8/4 600 м
[Cb cap Ci fib]
-11.9 -13.9 85 -14 -14 1012.9 949.3
00 16.04 ЮЗ 1
{5}
20 км 9/6 600 м
[Cb cap Ac trans Cs]
-8.2 -10.9 81 -11 -10 1011.3 949.3 -13.0 24
03 16.04 СВ 1 8 баллов 61 948.0
06 16.04 С 2 50 км 10/8 600 м
[Cb cap Cs]
-1.0 -10.7 48 -4 -2 1005.8 945.3
09 16.04 СВ 1 50 км 9/8 600 м
[Cb cap Cs]
+0.3 -12.5 38 -1 1005.3 945.3
12 16.04 СВ 2
{5}
50 км 9/9 600 м
[Cb cap]
-2.1 -10.6 52 -5 -5 1007.4 946.7 +1.5
15 16.04 ЮЗ 1 н/о 3/1 600 м
[Cb cap Ci fib]
-5.1 -10.5 66 -7 -7 1009.8 948.2
18 16.04 З 1 н/о 8/5 600 м
[Cb cap Ci fib]
-6.4 -10.0 76 -9 -9 1012.2 950.7
21 16.04 З 3 н/о 9/9 600 м
[Cb cap]
-8.2 -10.5 83 -14 -14 1014.8 952.0
00 17.04 СВ 3
{4}
5 баллов 78 956.0
03 17.04 СВ 2 50 км 8/8 600 м
[Cu med, cong]
-1.5 -10.6 50 -5 -3 1017.9 957.3
06 17.04 ЮВ 2 50 км 3/3 600 м
[Cu med, cong]
+1.9 -12.6 33 +7 1017.2 957.3
09 17.04 В 1 50 км 3/0
[Ci fib]
+2.4 -14.2 28 +2 +7 1017.1 957.3
12 17.04 СВ 1
{6}
50 км ясно +0.2 -17.3 25 -1 -1 1017.5 957.3 +4.0
15 17.04 ЮЗ 1 н/о ясно -5.2 -13.2 53 -7 -7 1018.8 957.3
18 17.04 СЗ 1 н/о 3/0
[Ci fib]
-9.1 -12.5 76 -11 -11 1019.8 957.3
21 17.04 штиль 0 н/о ясно -11.2 -13.2 85 -11 -11 1020.3 957.3
00 18.04 штиль 0
{3}
50 км 3/0
[Ci fib]
-8.5 -10.9 83 -9 -6 1018.1 956.0 -11.8 24
03 18.04 Ю 7 50 км 6/0
[Ci fib]
+2.7 -11.3 35 -3 1012.3 952.0
06 18.04 ЮЗ 8
{10}
50 км 1/0
[Ci fib]
+7.7 -8.1 32 +4 +6 1007.0 948.0
09 18.04 ЮЗ 9-10
{11}
50 км 8/0
[Ci fib]
+8.7 -9.2 27 +5 +5 1003.6 945.3
12 18.04 Ю 2
{11}
50 км 9/0
[Ac lent Cs]
+8.0 -9.1 29 +7 +7 1001.2 942.7 +10.3
15 18.04 С 4 н/о 10/8 600 м
[Cb cap Cs]
+3.7 -8.2 41 0 0 998.3 939.3
18 18.04 ЮЗ 4 н/о 9/9 600 м
[Cb cap]
-1.2 -5.1 75 -7 -7 996.6 936.7
21 18.04 З 6-10
{10}
н/о 9/9 600 м
[Cb cap]
+3.6 -4.5 55 -1 -1 998.1 939.1
00 19.04 З 7-10
{13}
20 км {ливн. осадки} 10/10 600 м
[Cb cap]
+0.3 -5.6 65 -6 -6 1004.1 944.1 -1.4 0.4 21
03 19.04 ЮЗ 8-12
{14}
20 км 9/9 600 м
[Cb cap]
+0.3 -6.9 58 -7 -6 1006.9 946.5 -0.7
06 19.04 З 9-12
{14}
20 км в посл. час ливневой снег 9/5 600 м
[Cb cap Ac trans Cs]
-1.3 -7.2 64 -9 -9 1009.4 948.6
09 19.04 З 10-15
{18}
20 км 9/8 600 м
[Cb cap Ac trans Cs]
-3.7 -13.4 47 -12 -12 1014.7 953.1
12 19.04 Ю 5
{18}
20 км 9/9 600 м
[Cb cap]
-4.0 -10.3 62 -11 -11 1018.0 956.2 +1.5 0.1
15 19.04 Ю 4 н/о 10/10 600 м
[Cb cap]
-3.0 -8.8 64 -9 -9 1017.9 956.3
18 19.04 Ю 3 н/о 10/10 600 м
[Cb cap]
-2.1 -7.9 64 -7 -7 1019.3 957.7
21 19.04 Ю 3 н/о 8/6 600 м
[Cb cap Ci fib]
-5.0 -9.5 71 -10 -10 1020.1 957.9
00 20.04 ЮЗ 3 20 км 6/1 600 м
[Sc Ci fib]
-4.0 -7.7 75 -9 -7 1019.6 957.7 -6.1 20
03 20.04 З 7
{11}
20 км 3/3 600 м
[Cu med, cong]
-1.6 -12.4 44 -8 -6 1018.4 957.0
06 20.04 ЮЗ 6
{11}
50 км 3/3 600 м
[Cb cap]
+1.3 -11.6 38 -4 -1 1016.4 955.7
09 20.04 ЮЗ 7
{10}
50 км 3/3 600 м
[Cb cap]
+2.2 -10.2 39 -3 -2 1014.4 954.1
12 20.04 ЮЗ 3 50 км 1/1 1000 м
[Sc]
+0.9 -10.8 41 -3 -3 1014.0 953.4 +3.6
18 20.04 СВ 1 н/о ясно -9.0 -12.4 76 -11 -11 1015.8 952.9
00 21.04 штиль 0 50 км 1/0
[Ci fib]
-8.0 -11.2 78 -9 -5 1013.4 951.0 -11.4 19

 

Местоположение метеостанции Карам (Иркутская область, Россия): широта 55.15 долгота 107.60 высота над уровнем моря 496 м.

В архиве по умолчанию представлена погода в Караме за последнюю неделю. Архивные данные за месяц целиком и за предыдущие месяцы, начиная с января 2011 года, Вы можете получить, выбрав интересующий диапазон дат из раскрывающегося списка и нажав кнопку "Ввод!".


*Определитесь, кто Вы:
робот инопланетянин человек

Внимание! Время в таблицах - всемирное. Для получения местного времени необходимо прибавить поправку, которая равна 8 ч.

Смотрите также архив погоды в соседних городах и на ближайших метеорологических станциях:

Погода в Тырке (Иркутская область, Россия) (84 км)
Погода в Даване (Бурятия, Россия) (101 км)
Погода в Казачинске (Иркутская область, Россия) (130 км)
Погода в Солнечной (Иркутская область, Россия) (130 км)
Погода в Томпе (Бурятия, Россия) (134 км)
Погода в Нижнеангарске (Бурятия, Россия) (139 км)
Погода в Орлинге (Иркутская область, Россия) (151 км)
Погода в Баргузинском Заповеднике (Бурятия, Россия) (152 км)
Погода на Большом Ушканьем Острове (Бурятия, Россия) (156 км)
Погода в Жигалове (Иркутская область, Россия) (164 км)

Пояснения к столбцам:

Ветер - указаны скорость ветра в м/с - средняя за 10 мин, порывы в срок и между сроками (в фигурных скобках) и направление, откуда дует ветер: С - северный, СВ - северо-восточный, В - восточный, ЮВ - юго-восточный, Ю - южный, ЮЗ - юго-западный, З - западный, СЗ - северо-западный.
Видимость - горизонтальная дальность видимости в метрах или километрах. При видимости от 1 до 10 км при отсутствии осадков обычно наблюдается дымка, при ухудшении видимости до 1 км и менее - туман. В сухую погоду видимость может ухудшаться дымом, пылью или мглою.
Явления - указаны атмосферные явления, наблюдавшиеся в срок или в последний час перед сроком; фигурными скобками обозначены явления, наблюдавшиеся между сроками (за 1-3 часа до срока); квадратными скобками обозначены град или гололедные отложения с указанием их диаметра в мм.
Облачность - указаны через наклонную черту общая и нижняя облачность в баллах и высота нижней границы облаков в метрах; квадратными скобками обозначены формы облаков: Ci - перистые, Cs - перисто-слоистые, Cc - перисто-кучевые, Ac - высококучевые, As - высокослоистые, Sc - слоисто-кучевые, Ns - слоисто-дождевые, Cu - кучевые, Cb - кучево-дождевые. Подробнее классификацию облаков см. в Атласе облаков (PDF).
T - Температура воздуха - температура, измеренная на высоте 2 м над землей.
Td - Температура точки росы - температура, при понижении до которой содержащийся в воздухе водяной пар достигнет насыщения.
f - Относительная влажность воздуха - влажноcть воздуха, измеренная на высоте 2 м над землей.
Te - Эффективная температура - температура, которую ощущает одетый по сезону человек в тени. Характеристика душности погоды. При расчете учитывается влияние влажности воздуха и скорости ветра на теплоощущения человека.
Tes - Эффективная температура на солнце - температура, которую ощущает человек, с поправкой на солнечный нагрев. Характеристика знойности погоды. Зависит от высоты солнца над горизонтом, облачности и скорости ветра. Ночью, в пасмурную погоду, а также при ветре 12 м/с и более поправка равна нулю.
P - Атмосферное давление - приведенное к уровню моря атмосферное давление.
Po - Атмосферное давление - измеренное на уровне метеостанции атмосферное давление.
Tmin - Минимальная температура - минимум температуры воздуха на высоте 2 м над землей.
Tmax - Максимальная температура - максимум температуры воздуха на высоте 2 м над землей.
R - Количество осадков - Количество выпавших осадков за период времени, мм. При наведении курсора мыши на число - период времени, за который выпало указанное количество осадков.
R24 - Количество осадков - Количество выпавших осадков за 24 часа, мм.
S - Снежный покров - Высота снежного покрова, см. При наведении курсора мыши на число - состояние снежного покрова и степень покрытия местности в баллах.